[[{"header":{"parameterUnit":"m.s-1","parameterCategory":1,"la1":30.2991,"la2":30.254,"lo1":-89.0895,"lo2":-89.0444,"dy":0.0017,"dx":0.0017,"nx":28,"ny":28,"refTime":"2025-04-27T09:00:00:Z","depth":0,"parameterNumber":2,"parameterNumberName":"U-component_of_WINDS"},"data":[0,0,0,0,0,0,0,0,0,0,0,0,0,0,0,0,0,0,0,0,0,0,0,0,0,0,0,0,0,0,0,0,0,0,0,0,0,0,0,0,0,0,0,0,0,0,0,0,0,0,0,0,0,0,0,0,0,0,0.9415,0.9415,0,0.9465,0.9466,0.9466,0.9455,0.9454,0.9453,0.9452,0.9504,0.9506,0.9509,0,0,0,0,0,0,0,0,0,0,0,0,0,0.9307,0.9309,0.9415,0.9415,0.9416,0.9465,0.9466,0.9466,0.9455,0.9454,0.9453,0.9452,0.9503,0.9506,0.9509,0,0,0,0,0,0,0,0,0,0,0,0,0,0.9355,0.9309,0.9414,0.9416,0.9417,0.9465,0.9466,0.9467,0.9455,0.9454,0.9452,0.9451,0.9503,0.9506,0.9509,0.9559,0,0,0.952,0.9521,0,0,0,0,0,0,0,0,0.9352,0.9359,0.9415,0.9416,0.9417,0.9452,0.9447,0.9498,0.9456,0.9441,0.9452,0.945,0.9488,0.9493,0.9505,0.9561,0.9564,0.952,0.9522,0.9523,0.9524,0,0,0,0,0,0,0,0.9349,0.9357,0.9435,0.9416,0.9417,0.9414,0.9419,0.9456,0.9472,0.9442,0.9441,0.9447,0.9488,0.9502,0.9506,0.9564,0.952,0.9523,0.9525,0.9526,0.9661,0.9663,0,0,0,0,0,0,0.9345,0.9354,0.9433,0.9436,0.938,0.9417,0.9423,0.9442,0.9471,0.9474,0.9448,0.9447,0.9497,0.9502,0.9508,0.9566,0.9523,0.9527,0.9529,0.966,0.9661,0.9663,0,0,0,0,0,0,0.9343,0.9352,0.9431,0.9395,0.9405,0.942,0.9442,0.9444,0.9458,0.9476,0.9479,0.946,0.9496,0.9503,0.9546,0.9568,0.9528,0.9531,0.9658,0.966,0.9662,0.9684,0,0,0,0,0,0,0.934,0.9351,0.9371,0.9395,0.9407,0.9468,0.9444,0.9446,0.9464,0.9462,0.9488,0.949,0.9495,0.9541,0.9549,0.9572,0.9534,0.9656,0.9659,0.9662,0.9681,0.9687,0.9691,0,0,0,0,0,0.9336,0.9376,0.9372,0.9382,0.9431,0.947,0.9476,0.9481,0.9466,0.9485,0.9496,0.949,0.9564,0.9545,0.9555,0.9579,0.9654,0.9658,0.9661,0.9679,0.9686,0.9691,0,0,0,0,0,0,0.9354,0.9379,0.9375,0.9424,0.9445,0.9467,0.9492,0.9488,0.9513,0.951,0.9515,0.9521,0.9564,0.9576,0.9554,0.9627,0.9607,0.9613,0.9617,0.9624,0.9629,0.9624,0.9537,0,0,0,0,0,0.9364,0.9393,0.9413,0.9454,0.9465,0.9477,0.9494,0.9495,0.9517,0.9525,0.954,0.9561,0.9589,0.9607,0.9634,0.9683,0.9688,0.9704,0.9709,0.9713,0.9718,0.9742,0.9749,0.9674,0.9674,0.9674,0,0,0.9384,0.9402,0.942,0.9458,0.9475,0.9504,0.9484,0.9517,0.9538,0.953,0.957,0.9582,0.9606,0.9651,0.9671,0.9662,0.9739,0.9718,0.9721,0.9723,0.9746,0.9753,0.9759,0.9677,0.9676,0.9676,0,0,0.9436,0.9453,0.9488,0.9504,0.9528,0.9535,0.9544,0.9567,0.9574,0.9614,0.9608,0.9634,0.9682,0.9699,0.9713,0.9769,0.9763,0.9777,0.9803,0.9827,0.9833,0.9838,0.9855,0.9862,0.9782,0.9782,0.9782,0,0.9458,0.9502,0.9506,0.9538,0.9555,0.9549,0.9583,0.9599,0.9631,0.9642,0.9631,0.969,0.9706,0.9753,0.9766,0.9779,0.9787,0.9774,0.9831,0.9837,0.9842,0.9858,0.9865,0.9783,0.9783,0.9783,0.9783,0,0.9527,0.9558,0.9583,0.9613,0.9632,0.9665,0.9673,0.9692,0.9692,0.97,0.974,0.9759,0.9788,0.98,0.98,0.9847,0.984,0.983,0.981,0.985,0.9866,0.9872,0.9786,0.9785,0.9785,0.9784,0,0,0.9593,0.9623,0.9632,0.9644,0.9669,0.9692,0.9725,0.9753,0.9768,0.979,0.9816,0.9856,0.9847,0.9863,0.9865,0.9886,0.9926,0.9874,0.9874,0.9881,0.9976,0.9982,0.9989,0.9923,0.9924,0.9925,0.9973,0,0.9645,0.9701,0.9705,0.9756,0.9782,0.9776,0.9804,0.9822,0.983,0.9854,0.9863,0.989,0.9877,0.9886,0.9907,0.9917,0.9945,0.9914,0.9946,0.9947,0.9938,0.9998,1.0005,1.0049,0.998,0.9981,0.9981,0,0.9714,0.9736,0.9789,0.9808,0.982,0.9845,0.9869,0.9892,0.9912,0.9916,0.9934,0.9932,0.9964,0.9944,0.9986,0.9965,0.9978,0.9985,0.9987,0.9989,0.9965,1.0,1.0064,1.007,0.9992,0.9991,0.999,0,0.9753,0.9797,0.9834,0.9845,0.9869,0.9886,0.9896,0.9915,0.9931,0.9952,0.9962,0.9988,1.0001,1.002,1.0025,1.001,1.0067,1.0048,1.0071,1.007,1.0082,1.0081,1.0148,1.0093,1.0093,1.0093,1.0093,0,0.981,0.9842,0.9851,0.9874,0.9909,0.9912,0.9947,0.9957,0.9973,0.9996,0.9993,1.0015,1.0021,1.0044,1.0048,1.0081,1.0088,1.0092,1.0092,1.0091,1.009,1.0099,1.0095,1.0095,1.0095,1.0094,1.0094,0,0.986,0.9867,0.9907,0.9925,0.9931,0.9956,0.9971,0.9992,0.9999,1.0029,1.0036,1.0047,1.0074,1.0081,1.0113,1.0116,1.0155,1.0153,1.0148,1.0147,1.0169,1.0166,1.0242,1.0251,1.0192,1.0193,1.0193,0,0.9895,0.992,0.994,0.9955,0.9967,0.9992,1.0007,1.0011,1.0027,1.005,1.0068,1.0094,1.0115,1.0157,1.0168,1.0192,1.019,1.0215,1.0193,1.0191,1.0188,1.0186,1.0187,1.0218,1.0219,1.0219,1.022,0,0.9956,0.9958,0.9981,1.0004,1.0022,1.0041,1.0059,1.0072,1.0078,1.0096,1.0123,1.0139,1.0171,1.0196,1.0219,1.023,1.0225,1.0226,1.0233,1.0231,1.0226,1.0227,1.0157,1.0225,1.0224,1.0224,1.0223,1.0223,0.9999,1.0019,1.0036,1.0061,1.0074,1.009,1.011,1.0119,1.0141,1.0167,1.0168,1.0196,1.0213,1.0245,1.0256,1.0278,1.027,1.028,1.0282,1.0284,1.0285,1.0224,1.0282,1.0282,1.0282,1.0282,1.0282,0,1.0058,1.0068,1.009,1.0115,1.0134,1.0127,1.0146,1.0162,1.0187,1.0203,1.0223,1.0253,1.0277,1.0289,1.0312,1.0327,1.0325,1.0333,1.0331,1.0333,1.0291,1.0282,1.0333,1.0333,1.0333,1.0333,1.0333,1.0333,1.009,1.0124,1.0127,1.0167,1.0177,1.0204,1.0215,1.0229,1.0242,1.0275,1.0294,1.0301,1.0315,1.0339,1.036,1.0363,1.0371,1.0379,1.0381,1.0341,1.0336,1.0331,1.0323,1.0382,1.0382,1.0421,1.0421,1.0421]},{"header":{"parameterUnit":"m.s-1","parameterCategory":1,"la1":30.2991,"la2":30.254,"lo1":-89.0895,"lo2":-89.0444,"dy":0.0017,"dx":0.0017,"nx":28,"ny":28,"refTime":"2025-04-27T09:00:00:Z","depth":0,"parameterNumber":3,"parameterNumberName":"V-component_of_WINDS"},"data":[0,0,0,0,0,0,0,0,0,0,0,0,0,0,0,0,0,0,0,0,0,0,0,0,0,0,0,0,0,0,0,0,0,0,0,0,0,0,0,0,0,0,0,0,0,0,0,0,0,0,0,0,0,0,0,0,0,0,2.3651,2.3651,0,2.3645,2.3645,2.3645,2.3572,2.357,2.3568,2.3567,2.3561,2.3562,2.3564,0,0,0,0,0,0,0,0,0,0,0,0,0,2.3599,2.36,2.3651,2.3651,2.3651,2.3645,2.3645,2.3645,2.3572,2.357,2.3568,2.3566,2.356,2.3562,2.3564,0,0,0,0,0,0,0,0,0,0,0,0,0,2.361,2.3601,2.3651,2.3614,2.3611,2.3645,2.3645,2.3645,2.3573,2.357,2.3567,2.3565,2.356,2.3562,2.3564,2.3634,0,0,2.3571,2.3572,0,0,0,0,0,0,0,0,2.361,2.3612,2.362,2.3617,2.3613,2.3606,2.3624,2.3641,2.3574,2.3587,2.3567,2.3563,2.3578,2.3579,2.3584,2.3634,2.3633,2.3572,2.3573,2.3574,2.3575,0,0,0,0,0,0,0,2.3609,2.3612,2.3649,2.362,2.3616,2.3597,2.3596,2.3627,2.3598,2.3586,2.3581,2.3581,2.3576,2.3582,2.3583,2.3633,2.3571,2.3574,2.3575,2.3576,2.3737,2.374,0,0,0,0,0,0,2.3613,2.3612,2.3649,2.3649,2.3604,2.3601,2.3599,2.3611,2.3598,2.3593,2.3583,2.3577,2.3579,2.358,2.3583,2.3661,2.3574,2.3576,2.3577,2.3735,2.3738,2.3741,0,0,0,0,0,0,2.3613,2.3617,2.3649,2.3629,2.3631,2.3604,2.3619,2.3613,2.3618,2.3596,2.359,2.3594,2.3577,2.3579,2.3621,2.366,2.3577,2.3579,2.3731,2.3736,2.374,2.3821,0,0,0,0,0,0,2.3611,2.3618,2.3644,2.363,2.3633,2.3688,2.3621,2.3615,2.3623,2.3615,2.3605,2.3601,2.3575,2.3618,2.3623,2.3662,2.3581,2.3727,2.3733,2.3738,2.3815,2.3828,2.3839,0,0,0,0,0,2.361,2.3668,2.3646,2.3651,2.3665,2.3691,2.3692,2.3662,2.3626,2.3652,2.3637,2.3601,2.3655,2.3623,2.3628,2.3668,2.3725,2.3732,2.3738,2.3809,2.3825,2.3838,0,0,0,0,0,0,2.3688,2.3665,2.3641,2.3696,2.3696,2.3678,2.371,2.368,2.369,2.3682,2.3644,2.3642,2.3689,2.3683,2.3647,2.3734,2.3684,2.3692,2.3736,2.3751,2.3763,2.3763,2.3583,0,0,0,0,0,2.3712,2.3734,2.3713,2.3764,2.3765,2.3738,2.3748,2.3724,2.3722,2.3722,2.371,2.371,2.3726,2.3739,2.3753,2.3814,2.3809,2.3844,2.3856,2.3866,2.3873,2.3902,2.3917,2.3762,2.3762,2.3762,0,0,2.3761,2.3751,2.3768,2.378,2.3777,2.38,2.3739,2.3767,2.3783,2.3726,2.3764,2.3756,2.3753,2.3804,2.3826,2.38,2.3914,2.3874,2.3882,2.3884,2.3911,2.3925,2.3938,2.3767,2.3766,2.3765,0,0,2.3863,2.3858,2.3899,2.3897,2.3893,2.3874,2.3884,2.3871,2.3862,2.39,2.3857,2.3877,2.3907,2.3906,2.3909,2.4009,2.3975,2.4014,2.4077,2.4106,2.4118,2.4129,2.4163,2.4176,2.4022,2.4022,2.4022,0,2.3924,2.3958,2.3924,2.3954,2.396,2.3908,2.3949,2.3948,2.395,2.3954,2.3926,2.3961,2.3956,2.4005,2.4029,2.4034,2.4043,2.4015,2.4119,2.413,2.4139,2.4171,2.4184,2.4027,2.4026,2.4026,2.4025,0,2.4033,2.4057,2.4091,2.4092,2.4101,2.4137,2.4107,2.4121,2.4096,2.408,2.4118,2.411,2.412,2.4131,2.4107,2.4176,2.416,2.4126,2.4075,2.4159,2.4188,2.42,2.4033,2.4032,2.403,2.4029,0,0,2.4185,2.4165,2.4178,2.4177,2.4167,2.4185,2.4218,2.4227,2.4239,2.4242,2.4267,2.4293,2.4261,2.4265,2.4241,2.4267,2.4344,2.4229,2.4228,2.425,2.4418,2.4442,2.4457,2.4322,2.4324,2.4326,2.4417,0,2.4281,2.4335,2.4304,2.4362,2.4383,2.4334,2.4361,2.4359,2.4345,2.436,2.4344,2.4363,2.432,2.4321,2.4345,2.433,2.4377,2.4323,2.4344,2.4346,2.4345,2.4473,2.4499,2.4586,2.4429,2.4431,2.4432,0,2.4401,2.4407,2.4467,2.4451,2.4459,2.4485,2.449,2.4506,2.4501,2.4489,2.4493,2.4462,2.4492,2.4442,2.4482,2.4445,2.4453,2.4446,2.4449,2.4449,2.4393,2.4475,2.4613,2.4626,2.445,2.4449,2.4447,0,2.4503,2.4526,2.4564,2.4565,2.4549,2.4568,2.4562,2.4554,2.4562,2.4567,2.4571,2.458,2.4585,2.4592,2.4564,2.4531,2.4608,2.4556,2.4598,2.4598,2.4615,2.4615,2.4756,2.4622,2.4622,2.4622,2.4622,0,2.4613,2.4651,2.4609,2.4633,2.4674,2.4638,2.4679,2.4668,2.4662,2.4682,2.464,2.466,2.4622,2.4638,2.4616,2.4652,2.4655,2.4645,2.4639,2.4648,2.465,2.4652,2.4645,2.4625,2.4625,2.4624,2.4623,0,2.4734,2.4708,2.4746,2.4727,2.4723,2.4753,2.4737,2.4757,2.474,2.4766,2.477,2.4743,2.4759,2.4732,2.4745,2.473,2.478,2.4765,2.4781,2.4776,2.4819,2.4815,2.4966,2.4983,2.484,2.4842,2.4843,0,2.4806,2.4833,2.4817,2.4827,2.4823,2.484,2.4846,2.4812,2.4821,2.4816,2.4837,2.485,2.4858,2.4886,2.4868,2.4877,2.4861,2.4914,2.4863,2.4871,2.4861,2.4859,2.4861,2.4924,2.4926,2.4927,2.4928,0,2.4935,2.492,2.4931,2.4937,2.4946,2.4949,2.495,2.496,2.4924,2.4936,2.4951,2.4957,2.497,2.4983,2.4988,2.4981,2.4949,2.4944,2.4954,2.4964,2.4971,2.4966,2.4808,2.4941,2.494,2.4939,2.4938,2.4937,2.5032,2.5053,2.5044,2.5058,2.5054,2.5055,2.5073,2.5057,2.5069,2.5076,2.5055,2.5075,2.5068,2.5071,2.5068,2.5084,2.5061,2.5076,2.5079,2.5083,2.5089,2.497,2.5085,2.5084,2.5084,2.5084,2.5083,0,2.5157,2.5149,2.5161,2.5162,2.5172,2.514,2.5138,2.5149,2.5167,2.5163,2.5171,2.5189,2.52,2.5182,2.5191,2.5206,2.5192,2.521,2.5208,2.5207,2.511,2.51,2.5222,2.5222,2.5222,2.5221,2.5221,2.5221,2.5224,2.5258,2.5242,2.5273,2.5264,2.5283,2.5285,2.5285,2.5281,2.5302,2.5311,2.5299,2.5289,2.5297,2.5306,2.53,2.5305,2.5328,2.5317,2.5227,2.5214,2.5201,2.5191,2.533,2.533,2.5412,2.5413,2.5414]}]]